Regional Weather Roundup
Issued by NWS

Home | Current Version | Previous Version | Graphics & Text | Print | Product List | Glossary On
Versions: 1 2 3 4 5 6 7 8 9 10 11 12 13 14 15 16 17 18 19 20 21 22 23 24 25 26 27 28 29 30 31 32 33 34 35 36 37 38 39 40 41 42 43 44 45 46 47 48 49 50
000
ASUS43 KBIS 041320
RWRND

NORTH DAKOTA REGIONAL WEATHER ROUNDUP
NATIONAL WEATHER SERVICE BISMARCK ND
700 AM CST WED MAR 04 2015

NOTE: "FAIR" INDICATES FEW OR NO CLOUDS BELOW 12,000 FEET WITH NO
SIGNIFICANT WEATHER AND/OR OBSTRUCTIONS TO VISIBILITY.


NDZ001>003-009>011-017-041400-
NORTHWEST NORTH DAKOTA

CITY           SKY/WX    TMP DP  RH WIND       PRES   REMARKS
WILLISTON      CLEAR     -9 -17  68 N13       30.25R WCI -29
MINOT          FAIR     -11 -20  64 W18       30.20R WCI -36
MINOT AFB      CLEAR    -12 -20  69 NW17      30.20R WCI -37
$$

NDZ018>021-031>035-040>046-041400-
SOUTHWEST NORTH DAKOTA

CITY           SKY/WX    TMP DP  RH WIND       PRES   REMARKS
BISMARCK       CLEAR     -4 -13  65 NW14G25   30.23R WCI -24
DICKINSON      CLEAR     -6 -13  71 NW10      30.13R WCI -24
GARRISON         N/A    -11 -17  75 NW14      30.19R WCI -33
HETTINGER ARPT PTCLDY    -5 -12  72 NW9       30.15R WCI -22
$$

NDZ004>008-012>016-024-026-027-054-041400-
NORTHEAST NORTH DAKOTA

CITY           SKY/WX    TMP DP  RH WIND       PRES   REMARKS
GRAND FORKS    PTCLDY   -10 -16  74 W8        30.18R WCI -26
GRND FRKS AFB  CLEAR    -10 -17  68 NW8       30.17R WCI -26
DEVILS LAKE    CLEAR    -11 -22  58 NW12      30.14R WCI -31
$$

NDZ022-023-025-028>030-036>039-047>053-041400-
SOUTHEAST NORTH DAKOTA

CITY           SKY/WX    TMP DP  RH WIND       PRES   REMARKS
FARGO          CLEAR     -4 -13  65 NW10      30.18R WCI -21
JAMESTOWN      CLEAR     -6 -13  71 NW15      30.14R WCI -27
$$




USA.gov is the U.S. government's official web portal to all federal, state and local government web resources and services.